www.pogodaiklimat.ru

Погода и климат >> Архив погоды >> Норвегия >> Эйк-Хоув


ПОГОДА в Эйк-Хоуве

  • Прогноз погоды в Эйк-Хоуве
  • Монитор погоды в Эйк-Хоуве

АРХИВ ПОГОДЫ в Эйк-Хоуве

Время (UTC), дата Ветер
(напр.,м/с)
 
Видим.   Явления Облачность Т
(С)
Тd
(С)
f
(%)
Тe
(С)
Тes
(С)
Комфортность P
(гПа)
Po
(гПа)
Тmin
(С)
Tmax
(С)
R
(мм)
R24
(мм)
S
(см)
16 9.06 Ю 4
{7}
н/о н/о +12.5 +7.4 71 +11 +11 1018.2 1010.2
17 9.06 Ю 2
{6}
н/о н/о +12.3 +7.6 73 +11 +11 1018.6 1010.6
18 9.06 Ю 1
{10}
50 км {ливн. осадки} 9/8 600 м
[Cu med, cong Ac trans]
+11.5 +7.6 77 +11 +12 1018.9 1010.9 +10.6 +13.3 4
19 9.06 Ю 2
{4}
н/о н/о +11.6 +7.7 77 +11 +11 1019.0 1011.0
20 9.06 Ю 1
{4}
н/о н/о +10.8 +7.7 81 +11 +11 1019.3 1011.3
21 9.06 ЮЗ 1
{3}
н/о н/о +10.6 +8.2 85 +10 +10 1019.9 1011.8
22 9.06 ЮЗ 1
{3}
н/о н/о +10.4 +8.3 87 +10 +10 1020.1 1012.0
23 9.06 СЗ 1
{2}
н/о н/о +9.7 +8.3 91 +9 +9 1020.1 1012.0
00 10.06 штиль 0
{4}
н/о н/о +9.7 +8.8 94 +9 +9 1020.2 1012.1
01 10.06 СЗ 1
{2}
н/о н/о +9.5 +9.1 97 +9 +9 1020.1 1012.0 0.1
02 10.06 С 1
{2}
н/о н/о +9.5 +9.2 98 +9 +9 1020.1 1012.0 0.3
03 10.06 СЗ 1
{1}
н/о н/о +9.4 +9.3 99 +9 +9 1020.0 1011.9 0.8
04 10.06 С 1
{1}
н/о н/о +9.6 +9.5 99 +9 +9 1020.2 1012.1
05 10.06 С 1
{2}
н/о н/о +9.8 +9.7 99 +9 +9 1020.2 1012.1
06 10.06 Ю 1
{2}
40 км {ливн. осадки} 9/8 100 м
[Cu med, cong Ci sp]
+11.6 +10.5 93 +11 +12 1020.2 1012.2 +9.3 +11.7 1
07 10.06 Ю 1
{2}
н/о н/о +11.9 +9.6 86 +12 +12 1020.6 1012.6
08 10.06 В 1
{3}
н/о н/о +13.9 +10.5 80 +14 +14 1020.7 1012.7
09 10.06 Ю 1
{2}
н/о н/о +14.6 +8.1 65 +15 +15 1020.4 1012.5
10 10.06 Ю 1
{3}
н/о н/о +15.5 +7.8 60 +16 +16 1020.1 1012.2
11 10.06 ЮВ 2
{3}
н/о н/о +16.6 +7.3 54 +17 +17 1019.9 1012.0
12 10.06 Ю 3
{5}
>70 км 8/8 600 м
[Cu med, cong Ci fib]
+15.4 +7.9 61 +15 +17 1019.8 1011.9
13 10.06 Ю 2
{7}
н/о н/о +16.9 +8.6 58 +17 +17 1019.9 1012.0
14 10.06 Ю 4
{6}
н/о н/о +16.7 +7.9 56 +16 +16 1019.7 1011.8
15 10.06 Ю 3
{7}
н/о н/о +17.0 +7.6 54 +17 +17 1019.6 1011.7
16 10.06 С 2
{6}
н/о н/о +16.7 +7.4 54 +17 +17 1019.5 1011.6
17 10.06 СЗ 1
{5}
н/о н/о +16.9 +8.1 56 +18 +18 1019.5 1011.6
18 10.06 З 1
{7}
>70 км 1/1 600 м
[Cu hum Ci fib]
+13.4 +8.3 71 +14 +16 1019.6 1011.6 +11.3 +17.6
19 10.06 З 2
{3}
н/о н/о +12.9 +8.0 72 +12 +12 1019.5 1011.5
20 10.06 СЗ 1
{3}
н/о н/о +9.5 +7.8 89 +9 +9 1020.0 1011.9
21 10.06 СЗ 2
{2}
н/о н/о +8.8 +7.7 93 +7 +7 1020.3 1012.2
22 10.06 СЗ 2
{2}
н/о н/о +7.8 +6.9 94 +6 +6 1020.3 1012.2
23 10.06 С 2
{3}
н/о н/о +6.4 +5.8 96 +4 +4 1020.1 1011.9
00 11.06
{3}
н/о н/о +6.1 +5.5 96 1019.8 1011.6
01 11.06 СЗ 2
{3}
н/о н/о +7.0 +6.3 95 +5 +5 1019.6 1011.4
02 11.06 С 1
{2}
н/о н/о +4.7 +4.3 97 +3 +3 1019.5 1011.3
03 11.06 С 1
{2}
н/о н/о +5.2 +5.1 99 +4 +4 1019.5 1011.3
04 11.06 С 1
{2}
н/о н/о +5.5 +5.4 99 +4 +4 1019.6 1011.4
05 11.06 СВ 1
{1}
н/о н/о +9.3 +9.0 98 +9 +9 1019.3 1011.2
06 11.06 ЮВ 1
{3}
>70 км 1/0
[Ac trans Ci sp]
+11.5 +8.0 79 +11 +15 1018.9 1010.9 +4.1 +13.5
07 11.06 ЮВ 1
{3}
н/о н/о +14.1 +8.9 71 +15 +15 1018.7 1010.8
08 11.06 Ю 1
{4}
н/о н/о +16.2 +9.2 63 +17 +17 1018.5 1010.6
09 11.06 СВ 3
{7}
н/о н/о +19.7 +6.5 42 +21 +21 комфорт 1018.4 1010.6
10 11.06 СВ 2
{7}
н/о н/о +21.2 +7.1 40 +22 +22 комфорт 1017.7 1010.0
11 11.06 СВ 4
{7}
н/о н/о +21.5 +6.6 38 +22 +22 комфорт 1017.4 1009.7
12 11.06 В 3
{8}
>70 км 9/1 1000 м
[Cu hum Ac As Ci sp]
+21.0 +6.5 39 +22 +29 комфорт 1017.4 1009.7
13 11.06 СВ 4
{7}
н/о н/о +20.9 +7.5 42 +22 +22 комфорт 1017.3 1009.5
14 11.06 С 2
{8}
н/о н/о +20.2 +7.2 43 +22 +22 комфорт 1017.2 1009.4
15 11.06 СВ 3
{7}
н/о н/о +20.0 +9.0 49 +21 +21 комфорт 1017.5 1009.7
16 11.06 ЮВ 2
{9}
н/о н/о +18.5 +9.8 57 +19 +19 1017.5 1009.7
17 11.06 ЮВ 1
{6}
н/о н/о +17.0 +10.8 67 +18 +18 1017.5 1009.6
18 11.06 С 3
{9}
25 км слаб. дождь 10/3 600 м
[Cu hum As op]
+15.1 +11.7 80 +14 +15 1017.1 1009.2 +11.5 +22.0 0.2
19 11.06 С 3
{8}
н/о н/о +15.1 +11.3 78 +14 +14 1017.2 1009.3 0.5
20 11.06 СЗ 4
{10}
н/о н/о +14.5 +11.3 81 +13 +13 1016.8 1008.9 0.9
21 11.06 С 3
{8}
н/о н/о +15.2 +10.2 72 +15 +15 1016.9 1009.0 0.5
22 11.06 СЗ 3
{10}
н/о н/о +14.1 +10.3 78 +13 +13 1016.9 1009.0 0.2
23 11.06 СЗ 5
{10}
н/о н/о +13.6 +10.2 80 +12 +12 1017.0 1009.1 1
00 12.06 СЗ 5
{11}
н/о н/о +14.8 +9.2 69 +13 +13 1016.9 1009.0
01 12.06 СЗ 4
{12}
н/о н/о +14.7 +9.1 69 +14 +14 1016.9 1009.0
02 12.06 СВ 5
{12}
н/о н/о +14.7 +8.4 66 +13 +13 1017.8 1009.9
03 12.06 С 4
{13}
н/о н/о +14.1 +7.9 66 +13 +13 1017.5 1009.6
04 12.06 С 4
{8}
н/о н/о +13.9 +7.7 66 +13 +13 1017.8 1009.9
05 12.06 СЗ 3
{11}
н/о н/о +13.9 +7.2 64 +13 +13 1017.3 1009.4
06 12.06 СЗ 3
{13}
>70 км {дождь} 9/9 600 м
[Cu Sc]
+13.7 +7.7 67 +13 +13 1017.7 1009.8 +13.4 +15.5 3
07 12.06 С 3
{7}
н/о н/о +13.6 +7.6 67 +13 +13 1018.3 1010.3
08 12.06 С 3
{7}
н/о н/о +13.7 +7.5 66 +13 +13 1017.9 1010.0
09 12.06 С 5
{11}
н/о н/о +14.1 +7.9 66 +12 +12 1017.3 1009.4
10 12.06 С 3
{10}
н/о н/о +16.5 +8.7 60 +16 +16 1016.6 1008.7
11 12.06 С 4
{7}
н/о н/о +17.2 +10.6 65 +17 +17 1016.1 1008.3
12 12.06 СВ 3
{11}
>70 км 10/10 1000 м
[Cu Sc]
+16.0 +9.0 63 +16 +16 1016.9 1009.0
13 12.06 В 2
{7}
н/о н/о +15.0 +8.9 67 +15 +15 1016.6 1008.7 0.1
14 12.06 СЗ 4
{8}
н/о н/о +14.5 +8.7 68 +13 +13 1016.1 1008.2
15 12.06 СЗ 3
{9}
н/о н/о +12.1 +10.7 91 +10 +10 1015.7 1007.7 3
16 12.06 С 2
{6}
н/о н/о +13.0 +9.5 79 +12 +12 1014.8 1006.9 0.5
17 12.06
{6}
н/о н/о +11.8 +10.7 93 1014.1 1006.1 2
18 12.06 С 4
{9}
30 км слаб. дождь 10/10 300 м
[Cu Sc]
+12.1 +10.2 88 +10 +10 1012.6 1004.7 +11.7 +18.4 6
19 12.06 ЮЗ 2
{6}
н/о н/о +12.2 +10.6 90 +11 +11 1012.7 1004.8 0.1
20 12.06 ЮВ 1
{4}
н/о н/о +12.0 +10.7 92 +12 +12 1012.3 1004.3
21 12.06 ЮЗ 2
{4}
н/о н/о +12.5 +10.7 89 +12 +12 1011.6 1003.7
22 12.06 Ю 1
{4}
н/о н/о +12.0 +10.6 91 +12 +12 1010.7 1002.8 0.1
23 12.06 Ю 2
{5}
н/о н/о +11.8 +10.6 92 +11 +11 1009.8 1001.9
00 13.06 Ю 2
{6}
н/о н/о +11.8 +10.6 92 +11 +11 1008.4 1000.5 0.2
01 13.06 СЗ 2
{3}
н/о н/о +11.3 +10.1 92 +10 +10 1008.0 1000.1 0.6
02 13.06 Ю 2
{3}
н/о н/о +11.1 +10.6 97 +10 +10 1007.3 999.4 0.3
03 13.06 С 1
{4}
н/о н/о +10.8 +10.3 97 +10 +10 1006.7 998.8 1
04 13.06 С 1
{2}
н/о н/о +10.8 +10.5 98 +10 +10 1006.5 998.6 0.7
05 13.06 СЗ 1
{1}
н/о н/о +10.8 +10.7 99 +10 +10 1006.4 998.5
06 13.06 С 2
{4}
15 км слаб. дождь 10/9 <50 м
[Frnb As op]
+11.2 +10.7 97 +10 +10 1006.7 998.8 +10.7 +13.0 3
07 13.06 Ю 1
{2}
н/о н/о +11.6 +11.1 97 +11 +11 1006.6 998.7
08 13.06 Ю 3
{5}
н/о н/о +12.4 +10.6 89 +11 +11 1007.0 999.1 0.1
09 13.06 ЮЗ 4
{8}
н/о н/о +12.4 +11.0 91 +10 +10 1007.4 999.5
10 13.06 Ю 4
{9}
н/о н/о +12.0 +11.2 95 +10 +10 1008.4 1000.5 0.1
11 13.06 Ю 2
{7}
н/о н/о +12.6 +11.2 91 +12 +12 1008.9 1001.0
12 13.06 Ю 4
{9}
50 км в посл. час дождь {морось} 9/9 300 м
[Cu Sc]
+13.4 +10.8 84 +12 +13 1009.3 1001.4
13 13.06 Ю 5
{8}
н/о н/о +14.2 +10.6 79 +13 +13 1009.7 1001.8
14 13.06 Ю 5
{9}
н/о н/о +14.1 +10.1 77 +12 +12 1010.1 1002.2
15 13.06 Ю 2
{8}
н/о н/о +14.1 +10.9 81 +14 +14 1010.2 1002.3
16 13.06 Ю 4
{6}
н/о н/о +13.6 +10.2 80 +12 +12 1010.2 1002.3 0.1
17 13.06 Ю 3
{7}
н/о н/о +14.1 +10.7 80 +13 +13 1010.3 1002.4
18 13.06 Ю 4
{9}
40 км слаб. ливневой дождь 9/9 600 м
[Cu Sc]
+13.8 +11.2 84 +12 +12 1010.6 1002.7 +11.2 +15.4
19 13.06 Ю 4
{9}
н/о н/о +13.1 +11.2 88 +11 +11 1011.3 1003.4
20 13.06 Ю 3
{8}
н/о н/о +13.0 +10.9 87 +12 +12 1011.7 1003.8 0.1
21 13.06 Ю 3
{8}
н/о н/о +12.9 +10.8 87 +11 +11 1012.6 1004.7 0.4
22 13.06 Ю 4
{7}
н/о н/о +13.4 +10.0 80 +12 +12 1013.0 1005.1
23 13.06 Ю 3
{9}
н/о н/о +13.1 +9.7 80 +12 +12 1013.3 1005.4
00 14.06 ЮВ 1
{9}
н/о н/о +12.5 +9.2 80 +13 +13 1013.3 1005.4
01 14.06 Ю 2
{5}
н/о н/о +12.5 +9.3 81 +12 +12 1013.4 1005.5
02 14.06 Ю 1
{5}
н/о н/о +12.1 +10.0 87 +12 +12 1013.5 1005.5 0.4
03 14.06 С 1
{2}
н/о н/о +10.9 +10.3 96 +10 +10 1013.6 1005.6
04 14.06 СЗ 1
{4}
н/о н/о +12.3 +10.2 87 +12 +12 1013.5 1005.5 1
05 14.06 СЗ 2
{6}
н/о н/о +13.2 +10.2 82 +12 +12 1013.5 1005.6
06 14.06 ЮЗ 2
{6}
60 км {ливн. осадки} 9/9 300 м
[Cu med, cong]
+13.9 +10.3 79 +13 +14 1013.6 1005.7 +10.9 +13.9 0.1
07 14.06 Ю 3
{6}
н/о н/о +14.5 +11.1 80 +14 +14 1014.1 1006.2 0.1
08 14.06 Ю 3
{7}
н/о н/о +14.8 +10.8 77 +14 +14 1014.6 1006.7
09 14.06 Ю 3
{7}
н/о н/о +14.9 +12.0 83 +14 +14 1015.1 1007.2
10 14.06 Ю 4
{9}
н/о н/о +17.0 +10.8 67 +17 +17 1015.4 1007.6
11 14.06 Ю 4
{8}
н/о н/о +17.3 +10.7 65 +17 +17 1015.6 1007.8
12 14.06 Ю 3
{9}
>70 км {ливн. осадки} 9/9 600 м
[Cu med, cong Ci sp]
+16.1 +10.4 69 +16 +17 1016.1 1008.2
13 14.06 Ю 4
{7}
н/о н/о +15.9 +9.6 66 +15 +15 1016.6 1008.7
14 14.06 Ю 4
{10}
н/о н/о +13.7 +11.2 85 +12 +12 1017.3 1009.4
15 14.06 Ю 3
{7}
н/о н/о +15.6 +11.2 75 +15 +15 1016.8 1008.9
16 14.06 Ю 3
{6}
н/о н/о +16.7 +11.2 70 +16 +16 1016.6 1008.7
17 14.06 Ю 4
{7}
н/о н/о +15.9 +10.5 70 +15 +15 1017.0 1009.1
18 14.06 Ю 3
{10}
>70 км {ливн. осадки} 3/1 600 м
[Cu hum Ac trans Ci fib]
+15.5 +9.4 67 +15 +16 1017.2 1009.3 +13.7 +17.7
19 14.06 Ю 2
{6}
н/о н/о +15.0 +10.4 74 +15 +15 1017.3 1009.4
20 14.06 ЮЗ 2
{5}
н/о н/о +14.8 +9.2 69 +15 +15 1017.8 1009.9
21 14.06 С 1
{3}
н/о н/о +9.9 +8.5 91 +9 +9 1018.6 1010.5
22 14.06 С 2
{3}
н/о н/о +8.6 +8.2 97 +7 +7 1018.7 1010.6
23 14.06 штиль 0
{2}
н/о н/о +8.0 +7.7 98 +7 +7 1018.9 1010.8
00 15.06 СЗ 1
{6}
н/о н/о +7.0 +6.7 98 +6 +6 1018.8 1010.7
01 15.06 СВ 1
{1}
н/о н/о +7.5 +7.4 99 +6 +6 1018.5 1010.4
02 15.06 СЗ 1
{2}
н/о н/о +7.0 +6.9 99 +6 +6 1018.1 1010.0
03 15.06 СЗ 1
{2}
н/о н/о +6.1 +6.0 99 +5 +5 1017.9 1009.7
04 15.06
{2}
н/о н/о +6.8 +6.8 100 1017.7 1009.6
05 15.06 С 1
{2}
н/о н/о +10.1 +10.1 100 +9 +9 1017.6 1009.6
06 15.06 ЮВ 1
{2}
50 км 4/1 600 м
[Cu hum Ci sp]
+12.8 +10.9 88 +13 +16 1017.0 1009.0 +6.1 +15.8
07 15.06 С 1
{3}
н/о н/о +15.3 +12.1 81 +16 +16 1016.7 1008.8
08 15.06 СВ 2
{5}
н/о н/о +19.9 +11.4 58 +22 +22 комфорт 1016.1 1008.3
09 15.06 ЮВ 2
{5}
н/о н/о +21.0 +11.9 56 +24 +24 комфорт 1015.4 1007.7
10 15.06 Ю 3
{8}
н/о н/о +21.3 +11.3 53 +23 +23 комфорт 1014.6 1006.9
11 15.06 СВ 3
{9}
н/о н/о +22.5 +13.0 55 +25 +25 комфорт 1014.0 1006.3
12 15.06 СВ 4
{9}
>70 км 9/1 1000 м
[Cu med, cong Ac trans Ci sp]
+23.1 +12.1 50 +26 +31 жарко 1013.4 1005.7
13 15.06 Ю 3
{9}
н/о н/о +22.1 +12.9 56 +25 +25 комфорт 1013.3 1005.6
14 15.06 С 2
{9}
н/о н/о +21.9 +11.6 52 +24 +24 комфорт 1013.2 1005.5
15 15.06 Ю 2
{8}
н/о н/о +16.2 +13.5 84 +16 +16 1013.8 1006.0 1
16 15.06 СЗ 2
{5}
н/о н/о +16.4 +14.4 88 +16 +16 1013.3 1005.5 0.7
17 15.06 СЗ 3
{7}
н/о н/о +17.3 +14.0 81 +17 +17 1012.9 1005.1 0.1
18 15.06 С 2
{9}
50 км слаб. ливневой дождь 9/8 600 м
[Cu med, cong As op Ci sp]
+18.1 +13.8 76 +19 +19 1012.5 1004.7 +12.8 +24.4 2
19 15.06
{5}
н/о н/о +17.8 +13.5 76 1012.0 1004.2
20 15.06 С 2
{4}
н/о н/о +16.8 +13.7 82 +17 +17 1011.9 1004.1
21 15.06 Ю 2
{5}
н/о н/о +16.1 +12.1 77 +16 +16 1012.2 1004.4 0.5
22 15.06 ЮЗ 1
{3}
н/о н/о +14.4 +13.5 94 +15 +15 1012.0 1004.1 0.1
23 15.06 СВ 1
{3}
н/о н/о +14.0 +13.5 97 +14 +14 1012.0 1004.1 0.1
00 16.06 Ю 3
{6}
н/о н/о +15.8 +11.2 74 +15 +15 1012.0 1004.2
01 16.06 СЗ 2
{6}
н/о н/о +15.0 +11.4 79 +15 +15 1012.0 1004.1 0.2
02 16.06 СЗ 1
{4}
н/о н/о +13.3 +12.4 94 +13 +13 1011.7 1003.8 0.2
03 16.06 С 1
{2}
н/о н/о +13.0 +12.5 97 +13 +13 1012.4 1004.5 0.6
04 16.06 С 1
{2}
н/о н/о +12.9 +12.6 98 +13 +13 1012.3 1004.4 0.4
05 16.06 СЗ 1
{1}
н/о н/о +13.2 +12.9 98 +13 +13 1012.3 1004.4
06 16.06 штиль 0
{6}
3500 м слаб. дождь 10/10 <50 м
[St]
+13.5 +13.2 98 +13 +13 1012.9 1005.0 +12.8 +18.1 0.3
07 16.06 Ю 2
{2}
н/о н/о +13.9 +13.6 98 +13 +13 1013.4 1005.5
08 16.06 Ю 2
{4}
н/о н/о +15.9 +14.4 91 +16 +16 1013.9 1006.0
09 16.06 Ю 2
{6}
н/о н/о +17.4 +12.5 73 +18 +18 1014.1 1006.3
10 16.06 ЮВ 3
{5}
н/о н/о +17.8 +11.6 67 +18 +18 1014.3 1006.5
11 16.06 Ю 3
{7}
н/о н/о +18.7 +9.8 56 +19 +19 1014.6 1006.8
12 16.06 ЮЗ 3
{7}
>70 км {дождь} 1/1 600 м
[Cu med, cong Ci fib]
+18.6 +9.1 54 +19 +30 1014.7 1006.9
13 16.06 Ю 3
{7}
н/о н/о +19.2 +10.2 56 +20 +20 1014.8 1007.0
14 16.06 Ю 4
{8}
н/о н/о +17.6 +10.3 62 +17 +17 1015.2 1007.4

 

Местоположение метеостанции Эйк-Хоув (Норвегия): широта 58.51 долгота 6.51 высота над уровнем моря 65 м.

В архиве по умолчанию представлена погода в Эйк-Хоуве за последнюю неделю. Архивные данные за месяц целиком и за предыдущие месяцы, начиная с января 2011 года, Вы можете получить, выбрав интересующий диапазон дат из раскрывающегося списка и нажав кнопку "Ввод!".


*Определитесь, кто Вы:
робот инопланетянин человек

Внимание! Время в таблицах - всемирное. Для получения местного времени необходимо прибавить поправку, которая равна 1 ч.

Смотрите также архив погоды в соседних городах и на ближайших метеорологических станциях:

Погода в Айгеройе (Норвегия) (38 км)
Погода на Маяке Lista (Норвегия) (45 км)
Погода в Сирдал-Синнесе (Норвегия) (51 км)
Погода в Сархейме (Норвегия) (57 км)
Погода на Маяке Obrestad (Норвегия) (57 км)
Погода в Консмо-Хойланде (Норвегия) (57 км)
Погода на Лярватне (Норвегия) (64 км)
Погода в Ставангер аэропорту (Норвегия) (65 км)
Погода на Маяке Lindesnes (Норвегия) (67 км)
Погода в Ставангере (Норвегия) (67 км)

Пояснения к столбцам:

Ветер - указаны скорость ветра в м/с - средняя за 10 мин, порывы в срок и между сроками (в фигурных скобках) и направление, откуда дует ветер: С - северный, СВ - северо-восточный, В - восточный, ЮВ - юго-восточный, Ю - южный, ЮЗ - юго-западный, З - западный, СЗ - северо-западный.
Видимость - горизонтальная дальность видимости в метрах или километрах. При видимости от 1 до 10 км при отсутствии осадков обычно наблюдается дымка, при ухудшении видимости до 1 км и менее - туман. В сухую погоду видимость может ухудшаться дымом, пылью или мглою.
Явления - указаны атмосферные явления, наблюдавшиеся в срок или в последний час перед сроком; фигурными скобками обозначены явления, наблюдавшиеся между сроками (за 1-3 часа до срока); квадратными скобками обозначены град или гололедные отложения с указанием их диаметра в мм.
Облачность - указаны через наклонную черту общая и нижняя облачность в баллах и высота нижней границы облаков в метрах; квадратными скобками обозначены формы облаков: Ci - перистые, Cs - перисто-слоистые, Cc - перисто-кучевые, Ac - высококучевые, As - высокослоистые, Sc - слоисто-кучевые, Ns - слоисто-дождевые, Cu - кучевые, Cb - кучево-дождевые. Подробнее классификацию облаков см. в Атласе облаков (PDF).
T - Температура воздуха - температура, измеренная на высоте 2 м над землей.
Td - Температура точки росы - температура, при понижении до которой содержащийся в воздухе водяной пар достигнет насыщения.
f - Относительная влажность воздуха - влажноcть воздуха, измеренная на высоте 2 м над землей.
Te - Эффективная температура - температура, которую ощущает одетый по сезону человек в тени. Характеристика душности погоды. При расчете учитывается влияние влажности воздуха и скорости ветра на теплоощущения человека.
Tes - Эффективная температура на солнце - температура, которую ощущает человек, с поправкой на солнечный нагрев. Характеристика знойности погоды. Зависит от высоты солнца над горизонтом, облачности и скорости ветра. Ночью, в пасмурную погоду, а также при ветре 12 м/с и более поправка равна нулю.
P - Атмосферное давление - приведенное к уровню моря атмосферное давление.
Po - Атмосферное давление - измеренное на уровне метеостанции атмосферное давление.
Tmin - Минимальная температура - минимум температуры воздуха на высоте 2 м над землей.
Tmax - Максимальная температура - максимум температуры воздуха на высоте 2 м над землей.
R - Количество осадков - Количество выпавших осадков за период времени, мм. При наведении курсора мыши на число - период времени, за который выпало указанное количество осадков.
R24 - Количество осадков - Количество выпавших осадков за 24 часа, мм.
S - Снежный покров - Высота снежного покрова, см. При наведении курсора мыши на число - состояние снежного покрова и степень покрытия местности в баллах.